Hourly Weather Öskemen

Today, 9 May, Sunday

Time Temperature Precipitation Wind Pressure Humidity
00:00 +10°C° 0 mm 0 mps 731 mmHg 62%
01:00 +10°C° 0 mm 0 mps 731 mmHg 63%
02:00 +9°C° 0 mm 0 mps 731 mmHg 64%
03:00 +9°C° 0 mm 0 mps 731 mmHg 65%
04:00 +9°C° 0 mm 0 mps 731 mmHg 65%
05:00 +9°C° 0 mm 0 mps 731 mmHg 65%
06:00 +10°C° 0 mm 0 mps 731 mmHg 66%
07:00 +12°C° 0 mm 0 mps 730 mmHg 59%
08:00 +14°C° 0 mm 0 mps 730 mmHg 53%
09:00 +18°C° 0 mm 1 mps 730 mmHg 47%
10:00 +20°C° 0 mm 1 mps 730 mmHg 42%
11:00 +21°C° 0 mm 1 mps 730 mmHg 36%
12:00 +23°C° 0 mm 1 mps 729 mmHg 31%
13:00 +24°C° 0 mm 1 mps 729 mmHg 28%
14:00 +25°C° 0 mm 1 mps 728 mmHg 26%
15:00 +26°C° 0 mm 1 mps 728 mmHg 23%
16:00 +25°C° 0 mm 1 mps 728 mmHg 25%
17:00 +25°C° 0 mm 1 mps 727 mmHg 28%
18:00 +25°C° 0 mm 1 mps 727 mmHg 30%
19:00 +22°C° 0 mm 1 mps 727 mmHg 33%
20:00 +20°C° 0 mm 1 mps 727 mmHg 37%
21:00 +18°C° 0 mm 1 mps 727 mmHg 40%
22:00 +16°C° 0 mm 1 mps 726 mmHg 43%
23:00 +15°C° 0 mm 1 mps 726 mmHg 46%

Tomorrow, 10 May, Monday

Time Temperature Precipitation Wind Pressure Humidity
00:00 +14°C° 0 mm 0 mps 726 mmHg 48%
01:00 +14°C° 0 mm 0 mps 726 mmHg 48%
02:00 +13°C° 0 mm 0 mps 726 mmHg 49%
03:00 +13°C° 0 mm 0 mps 726 mmHg 49%
04:00 +13°C° 0 mm 0 mps 726 mmHg 50%
05:00 +13°C° 0 mm 0 mps 726 mmHg 52%
06:00 +15°C° 0 mm 1 mps 726 mmHg 53%
07:00 +16°C° 0 mm 1 mps 726 mmHg 48%
08:00 +19°C° 0 mm 1 mps 726 mmHg 44%
09:00 +21°C° 0 mm 1 mps 726 mmHg 39%
10:00 +22°C° 0 mm 1 mps 726 mmHg 36%
11:00 +24°C° 0 mm 2 mps 725 mmHg 33%
12:00 +25°C° 0 mm 2 mps 725 mmHg 30%
13:00 +25°C° 0 mm 2 mps 725 mmHg 35%
14:00 +24°C° 0 mm 2 mps 724 mmHg 39%
15:00 +23°C° 0 mm 2 mps 724 mmHg 43%
16:00 +21°C° 0.2 mm 2 mps 724 mmHg 50%
17:00 +21°C° 0.2 mm 1 mps 724 mmHg 57%
18:00 +19°C° 0.2 mm 1 mps 724 mmHg 64%
19:00 +18°C° 0 mm 1 mps 724 mmHg 68%
20:00 +16°C° 0 mm 1 mps 724 mmHg 72%
21:00 +15°C° 0 mm 1 mps 724 mmHg 76%
22:00 +14°C° 0.1 mm 1 mps 724 mmHg 78%
23:00 +13°C° 0.1 mm 1 mps 724 mmHg 81%

Day after tomorrow, 11 May, Tuesday

Time Temperature Precipitation Wind Pressure Humidity
00:00 +13°C° 0.1 mm 1 mps 725 mmHg 83%
01:00 +12°C° 0.1 mm 1 mps 725 mmHg 84%
02:00 +12°C° 0.1 mm 1 mps 725 mmHg 84%
03:00 +11°C° 0.1 mm 1 mps 725 mmHg 85%
04:00 +11°C° 0 mm 1 mps 725 mmHg 82%
05:00 +10°C° 0 mm 2 mps 726 mmHg 80%
06:00 +10°C° 0 mm 2 mps 726 mmHg 77%
07:00 +12°C° 0 mm 2 mps 726 mmHg 70%
08:00 +13°C° 0 mm 2 mps 727 mmHg 63%
09:00 +13°C° 0 mm 3 mps 727 mmHg 56%
10:00 +14°C° 0 mm 3 mps 727 mmHg 54%
11:00 +16°C° 0 mm 3 mps 727 mmHg 51%
12:00 +17°C° 0 mm 3 mps 727 mmHg 49%
13:00 +18°C° 0 mm 4 mps 727 mmHg 49%
14:00 +17°C° 0 mm 5 mps 727 mmHg 49%
15:00 +17°C° 0 mm 6 mps 727 mmHg 48%
16:00 +16°C° 0 mm 6 mps 727 mmHg 46%
17:00 +16°C° 0 mm 6 mps 727 mmHg 45%
18:00 +16°C° 0 mm 6 mps 728 mmHg 43%
19:00 +14°C° 0 mm 6 mps 728 mmHg 44%
20:00 +13°C° 0 mm 5 mps 728 mmHg 46%
21:00 +12°C° 0 mm 5 mps 729 mmHg 48%
22:00 +11°C° 0 mm 4 mps 729 mmHg 49%
23:00 +10°C° 0 mm 4 mps 729 mmHg 51%

12 May, Wednesday

Time Temperature Precipitation Wind Pressure Humidity
00:00 +10°C° 0 mm 4 mps 729 mmHg 53%
01:00 +9°C° 0 mm 3 mps 729 mmHg 60%
02:00 +8°C° 0 mm 3 mps 729 mmHg 66%
03:00 +7°C° 0 mm 3 mps 730 mmHg 72%
04:00 +7°C° 0 mm 3 mps 730 mmHg 75%
05:00 +7°C° 0 mm 3 mps 730 mmHg 77%
06:00 +7°C° 0 mm 3 mps 731 mmHg 80%
07:00 +8°C° 0 mm 4 mps 731 mmHg 72%
08:00 +10°C° 0 mm 5 mps 731 mmHg 64%
09:00 +11°C° 0 mm 7 mps 731 mmHg 56%
10:00 +12°C° 0 mm 7 mps 731 mmHg 50%
11:00 +13°C° 0 mm 8 mps 731 mmHg 45%
12:00 +13°C° 0 mm 8 mps 731 mmHg 39%
13:00 +15°C° 0 mm 8 mps 731 mmHg 37%
14:00 +15°C° 0 mm 8 mps 731 mmHg 35%
15:00 +16°C° 0 mm 8 mps 731 mmHg 32%
16:00 +15°C° 0 mm 7 mps 731 mmHg 35%
17:00 +15°C° 0 mm 7 mps 731 mmHg 37%
18:00 +15°C° 0 mm 6 mps 732 mmHg 39%
19:00 +13°C° 0 mm 5 mps 732 mmHg 44%
20:00 +11°C° 0 mm 4 mps 732 mmHg 49%
21:00 +9°C° 0 mm 3 mps 733 mmHg 54%
22:00 +8°C° 0 mm 2 mps 733 mmHg 56%
23:00 +7°C° 0 mm 2 mps 733 mmHg 57%

13 May, Thursday

Time Temperature Precipitation Wind Pressure Humidity
00:00 +6°C° 0 mm 2 mps 733 mmHg 59%
01:00 +7°C° 0 mm 1 mps 733 mmHg 61%
02:00 +6°C° 0 mm 1 mps 733 mmHg 63%
03:00 +6°C° 0 mm 1 mps 733 mmHg 64%
04:00 +6°C° 0 mm 1 mps 733 mmHg 65%
05:00 +6°C° 0 mm 0 mps 733 mmHg 65%
06:00 +6°C° 0 mm 0 mps 733 mmHg 65%
07:00 +9°C° 0 mm 1 mps 733 mmHg 59%
08:00 +11°C° 0 mm 1 mps 733 mmHg 53%
09:00 +13°C° 0 mm 2 mps 733 mmHg 47%
10:00 +14°C° 0 mm 2 mps 733 mmHg 44%
11:00 +15°C° 0 mm 2 mps 732 mmHg 40%
12:00 +17°C° 0 mm 3 mps 732 mmHg 37%
13:00 +17°C° 0 mm 3 mps 732 mmHg 35%
14:00 +18°C° 0 mm 4 mps 732 mmHg 33%
15:00 +18°C° 0 mm 4 mps 731 mmHg 31%
16:00 +18°C° 0 mm 4 mps 731 mmHg 33%
17:00 +18°C° 0 mm 4 mps 731 mmHg 35%
18:00 +17°C° 0 mm 4 mps 731 mmHg 38%
19:00 +14°C° 0 mm 3 mps 732 mmHg 45%
20:00 +13°C° 0 mm 2 mps 732 mmHg 52%
21:00 +11°C° 0 mm 1 mps 732 mmHg 59%
22:00 +10°C° 0 mm 1 mps 732 mmHg 63%
23:00 +9°C° 0 mm 1 mps 732 mmHg 66%

14 May, Friday

Time Temperature Precipitation Wind Pressure Humidity
00:00 +9°C° 0 mm 1 mps 733 mmHg 69%
01:00 +8°C° 0 mm 1 mps 733 mmHg 72%
02:00 +7°C° 0 mm 1 mps 733 mmHg 75%
03:00 +7°C° 0 mm 1 mps 733 mmHg 78%
04:00 +7°C° 0 mm 1 mps 733 mmHg 78%
05:00 +6°C° 0 mm 0 mps 734 mmHg 77%
06:00 +7°C° 0 mm 0 mps 734 mmHg 77%
07:00 +10°C° 0 mm 1 mps 734 mmHg 70%
08:00 +12°C° 0 mm 1 mps 735 mmHg 63%
09:00 +14°C° 0 mm 2 mps 735 mmHg 57%
10:00 +14°C° 0 mm 3 mps 735 mmHg 50%
11:00 +17°C° 0 mm 3 mps 735 mmHg 43%
12:00 +19°C° 0 mm 4 mps 735 mmHg 36%
13:00 +19°C° 0 mm 4 mps 735 mmHg 35%
14:00 +20°C° 0 mm 5 mps 735 mmHg 33%
15:00 +20°C° 0 mm 5 mps 734 mmHg 32%
16:00 +20°C° 0 mm 5 mps 734 mmHg 34%
17:00 +20°C° 0 mm 4 mps 734 mmHg 37%
18:00 +20°C° 0 mm 3 mps 734 mmHg 40%
19:00 +18°C° 0 mm 3 mps 735 mmHg 47%
20:00 +16°C° 0 mm 2 mps 735 mmHg 54%
21:00 +13°C° 0 mm 1 mps 735 mmHg 60%
22:00 +13°C° 0 mm 1 mps 735 mmHg 64%
23:00 +12°C° 0 mm 1 mps 735 mmHg 67%
Show more